Kokomo, IN

2:11 AM EDT on June 23, 2017 (GMT -0400)
Kokomo Municipal

Weather History for KOKK - April, 2014

Change the Weather History Date:

Thursday, April 3, 2014

  Actual Average (KGUS) Record (KGUS)
Temperature  
Mean Temperature 44 °F -  
Max Temperature 48 °F 56 °F 83 °F (2012)
Min Temperature 39 °F 37 °F 21 °F (2013)
Degree Days  
Heating Degree Days 22    
Moisture  
Dew Point 38 °F    
Average Humidity 86    
Maximum Humidity 100    
Minimum Humidity 66    
Precipitation  
Precipitation 2.46 in - - ()
Sea Level Pressure  
Sea Level Pressure 29.81 in    
Wind  
Wind Speed 16 mph (East)    
Max Wind Speed 28 mph    
Max Gust Speed 34 mph    
Visibility 5 miles    
Events Thunderstorm    
Averages and records for this station are not official NWS values.
T = Trace of Precipitation, MM = Missing Value Source: NWS Daily Summary

Daily Weather History Graph

Daily Weather History Graph

Search for Another Location

Airport or City:

Trip Planner

Search our weather history database for the weather conditions in past years. The results will help you decide how hot, cold, wet, or windy it might be!

Date:

Astronomy

Apr. 03, 2014 Rise Set
Actual Time 6:24 AM CDT 7:11 PM CDT
Civil Twilight 5:57 AM CDT 7:38 PM CDT
Nautical Twilight 5:24 AM CDT 8:11 PM CDT
Astronomical Twilight 4:50 AM CDT 8:45 PM CDT
Moon 8:52 AM CDT (4/3) 11:30 PM CDT (4/3)
Length of Visible Light 13h 41m
Length of Day
12h 46m
Waxing Crescent, 17% of the Moon is Illuminated
Apr 3
Waxing Crescent
Apr 7
First Quarter
Apr 15
Full
Apr 22
Last Quarter
Apr 29
New

Hourly Weather History & Observations

Time (CDT) Temp. Windchill Dew Point Humidity Pressure Visibility Wind Dir Wind Speed Gust Speed Precip Events Conditions
12:15 AM 48.2 °F - 37.4 °F 66% 30.02 in 10.0 mi ESE 11.5 mph - N/A Thunderstorm Thunderstorm
12:35 AM 46.4 °F 40.7 °F 39.2 °F 76% 30.03 in 9.0 mi East 12.7 mph - 0.04 in Thunderstorm Overcast
12:55 AM 46.4 °F 40.4 °F 39.2 °F 76% 30.01 in 5.0 mi East 13.8 mph - 0.05 in   Overcast
1:15 AM 44.6 °F 37.4 °F 39.2 °F 81% 30.01 in 9.0 mi East 16.1 mph - N/A   Overcast
1:35 AM 44.6 °F 37.8 °F 37.4 °F 76% 30.00 in 7.0 mi East 15.0 mph - 0.05 in   Overcast
1:55 AM 44.6 °F 36.9 °F 37.4 °F 76% 29.99 in 9.0 mi East 18.4 mph 23.0 mph 0.05 in   Overcast
2:15 AM 44.6 °F 36.6 °F 37.4 °F 76% 29.98 in 10.0 mi East 19.6 mph 25.3 mph N/A Thunderstorm Overcast
2:35 AM 44.6 °F 37.2 °F 37.4 °F 76% 29.97 in 7.0 mi East 17.3 mph - 0.02 in   Overcast
2:55 AM 44.6 °F 37.2 °F 37.4 °F 76% 29.95 in 8.0 mi East 17.3 mph - 0.11 in   Overcast
3:15 AM 44.6 °F 36.6 °F 37.4 °F 76% 29.95 in 9.0 mi East 19.6 mph - N/A   Overcast
3:35 AM 44.6 °F 37.4 °F 37.4 °F 76% 29.95 in 8.0 mi East 16.1 mph - N/A Thunderstorm Thunderstorm
3:55 AM 42.8 °F 34.3 °F 37.4 °F 81% 29.94 in 2.5 mi East 19.6 mph - 0.18 in Thunderstorm Thunderstorm
4:15 AM 42.8 °F 34.8 °F 37.4 °F 81% 29.94 in 5.0 mi East 17.3 mph - 0.06 in Thunderstorm Overcast
4:35 AM 42.8 °F 34.8 °F 39.2 °F 87% 29.95 in 5.0 mi ENE 17.3 mph - 0.18 in Thunderstorm Thunderstorm
4:55 AM 41.0 °F 31.9 °F 37.4 °F 87% 29.92 in 4.0 mi East 19.6 mph 25.3 mph 0.30 in   Overcast
5:15 AM 41.0 °F 31.1 °F 37.4 °F 87% 29.91 in 5.0 mi East 23.0 mph 29.9 mph N/A   Overcast
5:35 AM 41.0 °F 31.6 °F 37.4 °F 87% 29.90 in 6.0 mi East 20.7 mph 27.6 mph N/A   Overcast
5:55 AM 41.0 °F 31.9 °F 37.4 °F 87% 29.89 in 5.0 mi East 19.6 mph 27.6 mph 0.02 in   Overcast
6:15 AM 41.0 °F 32.8 °F 37.4 °F 87% 29.90 in 5.0 mi East 16.1 mph 26.5 mph 0.01 in Thunderstorm Overcast
6:35 AM 41.0 °F 31.4 °F 37.4 °F 87% 29.86 in 4.0 mi East 21.9 mph 28.8 mph 0.05 in Thunderstorm Overcast
6:55 AM 41.0 °F 31.6 °F 37.4 °F 87% 29.87 in 5.0 mi East 20.7 mph 26.5 mph 0.10 in Thunderstorm Thunderstorm
7:15 AM 41.0 °F 31.9 °F 37.4 °F 87% 29.88 in 5.0 mi East 19.6 mph 28.8 mph 0.04 in Thunderstorm Thunderstorm
7:35 AM 42.8 °F 33.5 °F 37.4 °F 81% 29.88 in 4.0 mi ESE 23.0 mph 28.8 mph 0.12 in   Overcast
7:55 AM 42.8 °F 33.8 °F 37.4 °F 81% 29.85 in 3.0 mi ESE 21.9 mph 31.1 mph 0.19 in Thunderstorm Overcast
8:15 AM 42.8 °F 33.3 °F 37.4 °F 81% 29.81 in 2.0 mi ESE 24.2 mph 32.2 mph 0.17 in Thunderstorm Thunderstorm
8:35 AM 42.8 °F 33.8 °F 39.2 °F 87% 29.82 in 2.5 mi East 21.9 mph 27.6 mph 0.31 in Thunderstorm Thunderstorm
8:55 AM 42.8 °F 34.0 °F 39.2 °F 87% 29.82 in 4.0 mi East 20.7 mph 27.6 mph 0.42 in Thunderstorm Thunderstorm
9:15 AM 42.8 °F 32.7 °F 37.4 °F 81% 29.79 in 4.0 mi ENE 27.6 mph - 0.13 in Thunderstorm Thunderstorm
9:35 AM 42.8 °F 32.9 °F 39.2 °F 87% 29.81 in 1.8 mi ENE 26.5 mph 34.5 mph 0.27 in Thunderstorm Thunderstorm
9:55 AM 41.0 °F 30.9 °F 39.2 °F 93% 29.82 in 1.0 mi ENE 24.2 mph - 0.64 in Thunderstorm Thunderstorm
10:15 AM 41.0 °F 31.1 °F 37.4 °F 87% 29.83 in 2.0 mi East 23.0 mph 28.8 mph 0.14 in   Overcast
10:35 AM 41.0 °F 31.9 °F 37.4 °F 87% 29.83 in 3.0 mi East 19.6 mph 26.5 mph 0.28 in   Overcast
10:55 AM 41.0 °F 31.1 °F 39.2 °F 93% 29.79 in 3.0 mi East 23.0 mph - 0.35 in   Mostly Cloudy
11:15 AM 41.0 °F 30.2 °F 37.4 °F 87% 29.73 in 5.0 mi East 27.6 mph 34.5 mph 0.03 in   Overcast
11:35 AM 42.8 °F 33.1 °F 39.2 °F 87% 29.73 in 10.0 mi East 25.3 mph 34.5 mph 0.03 in   Overcast
11:55 AM 42.8 °F 33.3 °F 39.2 °F 87% 29.73 in 10.0 mi East 24.2 mph 34.5 mph 0.03 in   Overcast
12:15 PM 42.8 °F 34.3 °F 39.2 °F 87% 29.72 in 10.0 mi ESE 19.6 mph 28.8 mph N/A   Overcast
12:35 PM 42.8 °F 34.8 °F 39.2 °F 87% 29.71 in 10.0 mi East 17.3 mph 24.2 mph N/A   Overcast
12:55 PM 44.6 °F 36.9 °F 39.2 °F 81% 29.70 in 10.0 mi East 18.4 mph 26.5 mph N/A   Overcast
1:15 PM 44.6 °F 37.2 °F 41.0 °F 87% 29.71 in 10.0 mi East 17.3 mph 21.9 mph N/A   Overcast
1:35 PM 42.8 °F 35.4 °F 39.2 °F 87% 29.72 in 10.0 mi East 15.0 mph - N/A   Overcast
1:55 PM 44.6 °F 36.6 °F 41.0 °F 87% 29.71 in 10.0 mi East 19.6 mph - N/A   Overcast
2:15 PM 42.8 °F 35.4 °F 39.2 °F 87% 29.71 in 7.0 mi ENE 15.0 mph - N/A   Overcast
2:35 PM 42.8 °F 34.3 °F 39.2 °F 87% 29.68 in 3.0 mi ENE 19.6 mph - N/A   Overcast
2:55 PM 42.8 °F 33.8 °F 39.2 °F 87% 29.66 in 4.0 mi ENE 21.9 mph - N/A   Overcast
3:15 PM 42.8 °F 34.8 °F 39.2 °F 87% 29.65 in 2.0 mi East 17.3 mph - 0.01 in   Overcast
3:35 PM 42.8 °F 35.8 °F 39.2 °F 87% 29.68 in 3.0 mi East 13.8 mph - 0.01 in   Overcast
3:55 PM 42.8 °F 35.4 °F 39.2 °F 87% 29.71 in 2.0 mi East 15.0 mph - 0.01 in   Overcast
4:15 PM 42.8 °F 35.1 °F 39.2 °F 87% 29.69 in 6.0 mi East 16.1 mph 20.7 mph N/A   Overcast
4:35 PM 42.8 °F 35.8 °F 39.2 °F 87% 29.70 in 3.0 mi ENE 13.8 mph - N/A   Overcast
4:55 PM 41.0 °F 34.3 °F 39.2 °F 93% 29.72 in 3.0 mi East 11.5 mph - N/A   Overcast
5:15 PM 41.0 °F 34.7 °F 39.2 °F 93% 29.74 in 2.5 mi East 10.4 mph - N/A   Overcast
5:35 PM 41.0 °F 34.3 °F 37.4 °F 87% 29.76 in 2.5 mi East 11.5 mph - N/A   Overcast
5:55 PM 41.0 °F 37.1 °F 37.4 °F 87% 29.77 in 3.0 mi East 5.8 mph - N/A   Overcast
6:15 PM 41.0 °F 35.8 °F 39.2 °F 93% 29.76 in 3.0 mi East 8.1 mph - N/A   Overcast
6:35 PM 41.0 °F 37.1 °F 37.4 °F 87% 29.76 in 4.0 mi East 5.8 mph - N/A   Overcast
6:55 PM 41.0 °F 36.4 °F 37.4 °F 87% 29.76 in 2.5 mi ENE 6.9 mph - N/A   Overcast
7:15 PM 41.0 °F 35.8 °F 39.2 °F 93% 29.77 in 2.5 mi NE 8.1 mph - N/A   Overcast
7:35 PM 41.0 °F 37.1 °F 37.4 °F 87% 29.76 in 2.0 mi ENE 5.8 mph - 0.01 in   Overcast
7:55 PM 41.0 °F 37.1 °F 37.4 °F 87% 29.76 in 2.5 mi ENE 5.8 mph - 0.01 in   Overcast
8:15 PM 41.0 °F 36.4 °F 39.2 °F 93% 29.77 in 3.0 mi ENE 6.9 mph - N/A   Overcast
8:35 PM 41.0 °F 35.8 °F 37.4 °F 87% 29.77 in 4.0 mi ENE 8.1 mph - N/A   Overcast
8:55 PM 39.2 °F 31.6 °F 39.2 °F 100% 29.75 in 3.0 mi ENE 12.7 mph - N/A   Overcast
9:15 PM 39.2 °F 31.6 °F 37.4 °F 93% 29.73 in 3.0 mi ENE 12.7 mph - N/A   Overcast
9:35 PM 39.2 °F 30.8 °F 37.4 °F 93% 29.72 in 3.0 mi ENE 15.0 mph - N/A   Overcast
10:55 PM 39.2 °F 33.0 °F 35.6 °F 87% 29.73 in 1.2 mi East 9.2 mph - N/A   Overcast
11:15 PM 39.2 °F 33.0 °F 37.4 °F 93% 29.75 in 1.0 mi ESE 9.2 mph - N/A   Overcast
11:35 PM 39.2 °F 32.5 °F 35.6 °F 87% 29.72 in 0.8 mi East 10.4 mph - N/A   Overcast
11:55 PM 39.2 °F 32.5 °F 37.4 °F 93% 29.72 in 0.8 mi SE 10.4 mph - N/A   Overcast